Theta_e
312 322 331 337 345 349 354 356 356 355 353 353 352 352 354 355 355 353 353 354 353 353 354 353 352 350 348 346 346 349 351 351 350 351 351 351 350 350 350 350 349 347 351
311 317 326 331 340 346 348 352 355 355 355 355 352 352 353 354 355 354 353 353 353 354 354 354 350 348 348 347 348 349 351 349 348 347 348 349 349 349 348 349 349 348 350
309 312 313 327 331 333 338 346 351 353 355 355 354 353 354 355 355 354 353 353 353 355 355 352 350 349 349 348 348 349 349 348 347 345 345 341 343 349 348 349 349 349 350
308 310 314 324 324 328 330 334 340 349 352 354 354 355 354 354 354 354 353 353 353 354 355 352 350 350 349 349 349 349 348 347 345 343 340 341 342 348 348 348 349 350 349
306 308 316 322 320 322 325 327 332 337 348 351 352 354 354 354 354 354 353 352 353 354 355 353 352 350 348 349 348 347 347 345 342 341 339 339 340 346 349 348 348 348 347
302 305 313 322 317 318 320 322 325 330 335 346 350 352 354 354 353 353 352 351 351 354 354 353 352 350 348 348 348 346 345 344 340 339 337 340 338 348 348 347 347 346 345
300 302 304 319 318 315 317 319 320 322 327 333 341 350 352 352 352 352 352 351 351 352 353 352 352 350 348 347 347 346 343 340 338 335 336 336 340 348 346 345 346 346 347
298 301 304 311 317 317 318 317 316 318 320 325 330 343 349 350 351 351 351 351 350 351 351 351 351 349 347 346 346 343 339 335 335 329 333 340 344 348 347 346 345 346 347
297 299 300 302 306 312 315 317 317 318 320 321 325 333 343 345 347 346 348 349 349 351 351 349 349 347 346 346 344 340 335 332 331 330 331 339 343 346 346 345 345 346 344
296 297 297 298 300 300 302 312 316 317 320 321 323 328 332 336 339 339 339 344 347 349 349 348 346 345 345 344 341 336 332 331 331 332 332 338 343 346 346 345 344 344 344
295 295 296 297 297 299 300 301 310 314 316 320 320 321 327 337 341 339 337 338 344 344 346 346 345 343 340 338 336 333 330 332 331 332 335 337 344 345 345 345 344 343 343
291 293 295 295 296 298 299 299 302 304 307 312 318 319 322 338 339 340 333 331 337 338 341 344 343 338 334 337 334 330 333 331 332 334 334 336 344 346 344 343 343 343 342
292 293 294 295 296 296 296 298 299 300 303 307 313 318 321 324 338 338 340 335 338 330 339 341 339 338 338 336 333 332 332 330 334 334 334 335 342 344 341 339 338 338 341
291 293 294 295 295 295 297 297 298 299 300 302 306 315 319 318 333 336 338 338 336 337 337 339 337 337 337 336 333 330 330 330 331 333 331 330 337 342 341 338 338 337 336
291 292 293 294 294 295 295 297 298 298 299 301 304 310 317 322 322 334 337 338 337 338 336 337 336 336 336 335 332 330 330 331 330 332 332 324 332 338 339 337 338 337 335
292 292 294 295 296 296 295 295 296 298 299 300 302 305 312 319 323 322 335 336 337 336 336 336 336 335 335 336 332 330 331 330 329 329 329 326 327 332 335 334 333 334 333
291 293 294 295 296 295 295 295 296 297 299 299 301 304 309 315 318 323 327 334 336 336 336 335 335 335 334 334 333 332 332 329 329 326 325 322 323 324 328 331 332 332 332
291 292 294 296 296 297 295 295 296 297 297 298 299 302 308 313 316 320 320 330 334 336 335 334 335 334 333 332 331 331 330 330 327 323 321 320 320 322 324 328 329 331 333
290 290 291 293 294 295 296 297 296 296 297 297 298 300 303 308 315 319 325 328 332 333 334 333 334 332 331 330 329 330 328 326 325 320 319 318 318 318 320 324 324 325 331
288 289 290 291 292 294 295 295 296 296 296 298 298 300 303 305 309 310 316 325 330 327 329 333 331 331 329 326 315 308 308 310 315 316 316 317 317 318 318 317 316 317 324
287 287 288 289 289 290 290 291 293 293 295 296 297 299 300 301 302 308 314 322 327 326 325 330 330 326 323 309 304 301 301 303 305 307 313 314 315 318 318 317 316 314 318
285 286 287 287 288 289 290 291 293 293 294 295 297 298 299 302 303 306 309 318 324 323 323 324 325 320 307 313 309 300 295 299 301 303 306 313 314 317 318 318 316 315 314
283 284 285 286 286 287 288 289 290 292 293 293 294 295 297 300 301 303 309 316 323 324 321 319 317 314 305 311 309 303 293 295 296 299 301 306 312 312 313 315 313 314 315
283 283 284 285 286 287 287 287 287 287 288 292 293 294 296 298 298 298 305 315 321 323 321 320 319 314 308 307 305 301 303 299 295 292 298 300 307 310 309 308 309 308 311
282 282 283 284 285 286 286 286 286 286 288 291 293 293 295 297 298 298 300 314 319 320 320 318 315 315 314 312 306 297 298 298 298 295 293 295 298 301 305 304 303 302 305
281 281 282 282 283 284 285 285 285 286 287 289 291 292 293 295 297 299 301 313 319 319 316 315 314 312 311 311 310 304 300 298 297 297 294 296 295 296 300 302 302 300 301
Wind_Speed
9 13 24 24 22 18 10 11 12 12 16 17 18 18 17 15 13 13 15 16 17 18 19 18 17 15 12 10 10 11 13 11 12 13 13 15 15 14 15 13 11 12 13
8 12 20 24 24 23 19 11 12 13 14 14 17 18 18 18 17 15 15 16 17 19 18 18 18 16 13 11 12 12 11 11 11 13 12 12 13 14 14 12 12 12 13
8 10 14 21 23 24 24 23 11 13 16 16 16 17 17 18 19 20 18 18 17 19 18 18 17 16 15 13 13 13 13 13 12 12 13 6 6 11 8 14 16 15 14
8 10 13 19 22 22 23 22 23 13 15 17 18 17 18 19 20 21 19 18 19 18 17 19 18 16 16 15 13 14 13 14 13 13 8 9 9 13 15 16 16 15 14
8 8 10 16 20 21 21 21 21 21 13 18 19 19 19 19 20 21 21 19 19 18 18 18 17 17 15 15 15 15 14 13 13 11 9 9 7 12 16 16 14 14 12
9 8 7 12 16 19 19 19 21 20 19 14 19 20 21 21 21 20 21 21 20 18 19 18 17 18 16 15 16 16 15 14 10 7 7 12 8 13 15 15 12 10 12
8 7 7 9 10 16 17 17 19 18 18 18 17 22 22 22 22 21 22 22 21 19 19 19 18 18 17 16 16 17 15 12 9 6 10 8 11 15 16 15 14 13 12
8 6 6 7 9 10 12 14 16 17 18 19 19 16 23 24 24 23 23 23 23 20 20 20 19 19 18 17 16 16 14 12 9 5 8 7 15 16 17 16 15 13 11
8 8 6 6 6 9 11 11 13 12 14 15 17 17 21 24 25 26 24 25 24 23 21 21 20 20 19 18 17 15 14 13 7 3 7 8 15 17 17 15 14 15 13
7 7 7 7 7 5 5 10 10 11 10 14 12 14 14 15 20 20 21 23 26 24 23 21 21 21 21 19 16 14 14 14 5 5 6 8 16 17 17 17 15 15 15
8 7 7 7 7 6 6 8 7 8 10 10 7 9 12 9 14 16 19 20 25 25 22 22 22 21 19 17 15 14 13 5 5 3 5 16 18 18 17 17 16 15 14
9 8 7 7 7 7 7 7 6 7 5 6 5 6 6 9 11 14 15 17 22 22 24 22 24 21 17 9 8 12 7 6 5 4 6 14 15 20 19 16 16 15 15
9 7 8 7 7 7 6 4 3 3 4 4 7 4 5 9 7 8 8 9 13 17 13 15 14 11 14 10 8 8 9 7 5 5 10 15 16 19 18 16 15 14 14
9 12 9 8 7 7 5 4 4 3 4 4 5 7 2 2 8 7 8 9 10 9 14 13 9 13 14 15 13 12 11 6 4 5 10 14 15 17 19 19 17 16 16
10 9 8 8 7 6 6 5 4 4 4 5 5 6 4 4 5 9 9 10 9 10 12 12 12 12 13 14 13 13 12 7 7 6 6 13 14 17 19 19 18 17 16
11 8 7 7 7 6 6 6 5 4 5 5 5 5 7 5 4 7 9 11 10 10 11 12 13 13 13 13 14 14 13 6 7 11 7 8 13 15 18 20 19 19 17
10 7 6 7 7 7 7 7 6 5 7 4 5 7 7 6 5 6 8 8 10 10 14 13 13 13 12 11 14 14 10 8 7 12 10 7 7 11 13 18 18 20 20
6 7 8 8 9 8 6 6 7 7 6 6 5 6 7 7 7 6 5 9 9 10 11 13 13 12 13 12 11 13 9 9 10 13 11 9 7 7 8 13 16 18 19
7 7 8 8 9 9 9 7 7 9 8 8 8 5 7 8 8 5 4 8 9 8 11 13 13 14 13 12 12 11 9 7 10 10 13 12 10 7 5 11 12 11 17
4 6 7 8 8 8 6 7 7 6 6 8 7 6 7 4 7 7 9 9 13 11 10 14 17 14 11 10 7 7 6 4 4 4 11 10 10 9 6 7 6 5 9
5 7 8 8 9 7 5 7 7 7 7 8 8 10 9 8 9 11 10 9 7 11 19 12 15 20 10 12 11 5 7 8 6 5 2 5 10 10 9 8 5 4 4
7 8 10 11 11 9 7 6 7 7 8 8 6 8 10 9 10 11 10 9 7 7 15 13 12 11 5 13 8 5 4 4 6 7 5 1 5 6 9 10 7 7 6
8 8 11 12 12 12 12 9 9 10 9 10 10 9 10 8 8 9 9 11 8 10 9 9 6 12 7 7 13 7 5 4 5 3 5 4 4 3 6 6 7 6 6
10 9 11 13 13 13 12 11 14 12 13 10 9 10 10 11 11 12 14 13 11 9 11 12 13 11 11 8 6 5 1 8 7 3 2 5 2 5 6 4 5 5 5
11 11 10 13 14 14 13 14 12 14 13 11 10 15 11 10 11 11 14 14 12 10 10 13 13 13 14 13 6 4 1 6 7 6 6 3 2 3 4 4 5 5 5
12 12 12 14 15 14 15 16 17 18 17 13 13 11 11 8 7 10 14 14 14 13 13 12 16 16 14 12 11 9 8 7 5 5 5 6 4 2 3 3 4 4 4
Wind_Direction
28 44 33 17 8 355 281 208 200 200 200 192 187 180 172 165 158 151 146 145 147 153 158 162 159 158 163 152 141 122 115 111 111 102 108 116 118 125 131 138 142 114 118
40 48 32 21 20 14 3 271 210 196 198 196 195 186 180 172 163 162 159 156 159 162 167 160 165 161 162 153 138 131 119 121 117 115 112 117 121 132 144 157 126 126 122
39 38 31 20 22 23 17 6 261 213 192 191 197 193 181 176 169 166 168 165 170 171 171 161 166 163 153 153 144 136 125 121 126 128 128 116 116 128 139 119 122 132 128
46 27 37 17 18 21 22 16 8 275 221 201 194 192 188 182 176 171 173 172 173 178 172 169 169 162 159 156 152 138 135 133 144 157 145 132 135 123 124 125 126 133 130
38 47 42 22 9 14 19 17 13 4 286 224 202 195 192 188 184 178 175 177 179 182 177 175 172 162 164 159 155 150 143 152 165 168 138 135 127 138 131 126 125 126 119
15 23 36 22 6 4 8 12 11 5 358 294 222 207 196 193 189 185 180 180 183 185 179 177 179 166 167 162 154 152 153 174 169 197 140 133 131 147 136 132 131 117 116
4 5 358 16 4 359 357 1 2 1 350 339 325 219 207 199 193 190 185 183 186 186 180 178 176 168 166 163 158 155 164 180 183 199 138 137 138 152 146 138 130 128 128
342 348 344 354 349 345 347 351 350 346 349 342 335 291 219 208 198 193 190 187 187 187 181 180 174 168 168 163 162 159 167 181 204 167 137 118 140 148 141 143 136 137 144
335 334 343 345 347 357 338 339 331 333 337 336 327 321 252 220 208 201 191 193 188 187 182 182 174 168 169 167 164 164 174 191 192 167 138 133 141 154 149 138 137 129 136
328 333 340 334 339 328 331 309 306 325 327 319 330 324 288 241 221 209 195 194 191 191 184 179 174 169 170 168 165 167 184 196 203 180 130 144 144 154 152 146 144 140 135
323 331 327 330 322 331 322 318 328 320 315 297 321 340 284 245 230 218 203 196 196 192 187 179 173 171 167 165 163 170 183 187 208 126 110 144 149 156 155 151 152 147 142
312 314 314 313 315 328 323 316 319 304 297 284 295 315 335 246 236 221 210 199 196 193 188 181 175 166 154 165 170 169 187 190 184 132 126 149 162 159 155 156 148 152 146
300 302 304 309 312 308 299 283 287 279 293 294 283 289 320 322 226 223 224 208 208 198 194 185 175 170 170 165 170 179 192 199 162 143 149 151 158 158 162 169 175 173 145
277 273 269 276 282 283 283 285 282 279 290 292 282 269 262 291 291 223 217 201 208 198 198 188 175 176 174 168 169 178 189 197 156 139 160 157 159 160 168 168 174 174 168
254 261 261 254 256 269 274 281 288 279 268 280 293 290 240 231 271 274 230 211 194 191 198 189 177 175 174 167 168 179 189 186 160 142 154 160 158 166 173 171 172 171 173
263 257 260 265 262 263 268 275 272 274 269 265 272 265 260 236 227 283 256 225 206 197 196 188 180 178 177 169 171 179 190 176 165 141 152 163 161 166 176 176 176 175 174
261 269 273 271 260 258 258 262 263 260 271 253 259 265 273 251 228 224 278 236 228 200 192 190 185 176 176 171 174 178 174 173 171 147 152 153 167 171 175 178 176 177 173
1 1 340 331 323 304 274 267 273 276 277 281 277 283 272 249 249 248 243 250 225 231 193 191 178 176 180 176 169 177 172 176 166 151 151 156 160 167 179 175 178 177 176
3 343 326 312 302 301 300 281 255 258 265 270 272 270 268 275 260 270 250 277 250 237 209 190 179 186 180 171 169 175 164 172 168 149 156 158 160 161 164 176 170 182 182
338 310 294 288 280 289 284 281 276 258 257 261 260 245 246 266 284 263 262 241 231 215 264 192 181 179 173 148 99 87 74 57 72 136 159 157 164 159 154 146 145 151 192
293 282 277 285 288 287 281 280 273 276 249 252 253 251 248 247 245 262 257 251 220 201 213 237 191 173 162 135 112 65 59 56 46 45 46 143 166 165 147 150 145 142 149
300 298 297 292 291 287 281 276 274 265 261 265 265 262 242 238 234 238 245 258 236 230 199 179 221 147 91 171 137 114 73 24 35 8 8 129 165 145 152 155 146 155 149
312 307 302 298 294 290 288 288 285 282 270 266 264 255 255 256 245 254 252 229 211 205 189 158 152 131 142 172 161 152 144 125 96 334 352 326 130 126 118 138 135 145 152
305 301 295 290 285 281 279 274 264 263 267 260 252 247 248 237 241 252 258 236 201 203 199 194 165 147 130 179 130 31 329 129 148 137 343 290 338 144 124 119 119 123 116
311 299 295 293 287 285 278 271 269 265 268 264 253 262 257 237 231 232 251 240 190 197 197 182 165 167 179 173 160 178 240 77 103 136 154 218 13 350 115 125 130 130 123
310 303 299 294 290 288 283 280 276 265 267 262 255 264 248 247 235 238 241 242 197 191 182 183 169 168 170 167 169 173 164 145 168 133 122 167 156 57 20 112 127 131 134